Carmi, IL

11:44 AM CST on February 08, 2016 (GMT -0600)
Carmi Municipal

Weather History for KCUL - September, 2013

Change the Weather History Date:

Sunday, September 1, 2013

  Actual Average (KEVV) Record (KEVV)
Temperature  
Mean Temperature 80 °F 74 °F  
Max Temperature 90 °F 86 °F 101 °F (1953)
Min Temperature 69 °F 63 °F 46 °F (1987)
Degree Days  
Heating Degree Days 0 0  
Month to date heating degree days 0  
Since 1 July heating degree days 1  
Cooling Degree Days 14 10  
Month to date cooling degree days 10  
Year to date cooling degree days 1209  
Growing Degree Days 30 (Base 50)    
Moisture  
Dew Point 71 °F    
Average Humidity 82    
Maximum Humidity 95    
Minimum Humidity 55    
Precipitation  
Precipitation 0.93 in 0.10 in 2.08 in (1916)
Month to date precipitation 0.10  
Year to date precipitation 31.02  
Snow  
Snow 0.00 in 0.00 in 0.00 in ()
Month to date snowfall 0.0  
Since 1 July snowfall 0.0  
Since 1 September snowfall 0.0  
Snow Depth -    
Sea Level Pressure  
Sea Level Pressure 29.81 in    
Wind  
Wind Speed 8 mph (SSW)    
Max Wind Speed 17 mph    
Max Gust Speed 29 mph    
Visibility 9 miles    
Events Rain , Thunderstorm    
T = Trace of Precipitation, MM = Missing Value Source: NWS Daily Summary

Daily Weather History Graph

Daily Weather History Graph

Search for Another Location

Airport or City:

Trip Planner

Search our weather history database for the weather conditions in past years. The results will help you decide how hot, cold, wet, or windy it might be!

Date:

Astronomy

Sep. 01, 2013 Rise Set
Actual Time 6:22 AM CDT 7:21 PM CDT
Civil Twilight 5:55 AM CDT 7:48 PM CDT
Nautical Twilight 5:23 AM CDT 8:20 PM CDT
Astronomical Twilight 4:50 AM CDT 8:53 PM CDT
Moon 2:46 AM CDT (9/1) 4:57 PM CDT (9/1)
Length of Visible Light 13h 53m
Length of Day
12h 59m
Waning Crescent, 13% of the Moon is Illuminated
Sep 1
Waning Crescent
Sep 5
New
Sep 12
First Quarter
Sep 19
Full
Sep 26
Last Quarter

Hourly Weather History & Observations

Time (CDT) Temp. Heat Index Dew Point Humidity Pressure Visibility Wind Dir Wind Speed Gust Speed Precip Events Conditions
12:15 AM 75.9 °F - 71.8 °F 87% 29.79 in 10.0 mi South 4.6 mph - 0.05 in Rain , Thunderstorm Light Thunderstorms and Rain
12:35 AM 75.6 °F - 71.4 °F 87% 29.79 in 10.0 mi ESE 3.5 mph - 0.06 in Rain Light Rain
12:55 AM 74.3 °F - 70.7 °F 88% 29.79 in 10.0 mi East 5.8 mph - 0.06 in Thunderstorm Mostly Cloudy
1:15 AM 73.2 °F - 69.8 °F 89% 29.80 in 10.0 mi East 6.9 mph - N/A   Scattered Clouds
1:35 AM 72.7 °F - 69.8 °F 91% 29.80 in 10.0 mi ESE 5.8 mph - N/A Thunderstorm Scattered Clouds
1:55 AM 72.1 °F - 69.8 °F 92% 29.80 in 4.0 mi East 10.4 mph - 0.08 in Rain , Thunderstorm Light Thunderstorms and Rain
2:15 AM 71.6 °F - 69.3 °F 92% 29.82 in 2.5 mi East 17.3 mph 28.8 mph 0.19 in Rain , Thunderstorm Heavy Thunderstorms and Rain
2:35 AM 72.5 °F - 69.4 °F 90% 29.81 in 7.0 mi SE 5.8 mph - 0.41 in Rain , Thunderstorm Light Thunderstorms and Rain
2:55 AM 71.6 °F - 68.9 °F 91% 29.84 in 10.0 mi ESE 9.2 mph - 0.56 in Thunderstorm Thunderstorm
3:15 AM 71.6 °F - 69.3 °F 92% 29.83 in 10.0 mi SE 8.1 mph - 0.08 in   Overcast
3:35 AM 70.9 °F - 68.4 °F 92% 29.82 in 10.0 mi SE 11.5 mph 16.1 mph 0.08 in Thunderstorm Scattered Clouds
3:55 AM 70.9 °F - 68.4 °F 92% 29.82 in 10.0 mi SSE 11.5 mph - 0.08 in   Scattered Clouds
4:15 AM 70.2 °F - 67.6 °F 92% 29.80 in 10.0 mi SSE 9.2 mph 18.4 mph N/A   Scattered Clouds
4:35 AM 69.8 °F - 67.3 °F 92% 29.80 in 10.0 mi SSE 11.5 mph - N/A   Clear
4:55 AM 69.8 °F - 67.3 °F 92% 29.80 in 10.0 mi SSE 8.1 mph - N/A   Clear
5:15 AM 69.8 °F - 67.5 °F 92% 29.80 in 10.0 mi South 9.2 mph - N/A   Clear
5:35 AM 69.8 °F - 67.1 °F 91% 29.80 in 10.0 mi South 8.1 mph - N/A   Clear
5:55 AM 69.8 °F - 67.1 °F 91% 29.79 in 10.0 mi South 6.9 mph - N/A   Clear
6:15 AM 69.6 °F - 67.1 °F 92% 29.79 in 10.0 mi South 5.8 mph - N/A   Clear
6:35 AM 69.3 °F - 67.3 °F 93% 29.79 in 10.0 mi SSW 5.8 mph - N/A   Clear
6:55 AM 69.4 °F - 67.1 °F 92% 29.80 in 10.0 mi South 4.6 mph - N/A   Clear
7:15 AM 70.0 °F - 67.6 °F 92% 29.80 in 10.0 mi South 5.8 mph - N/A   Clear
7:35 AM 71.6 °F - 68.9 °F 91% 29.81 in 10.0 mi South 5.8 mph - N/A   Clear
7:55 AM 72.5 °F - 69.8 °F 91% 29.81 in 10.0 mi SSW 6.9 mph - N/A   Clear
8:15 AM 73.9 °F - 70.7 °F 90% 29.81 in 10.0 mi South 6.9 mph - N/A   Clear
8:35 AM 75.0 °F - 71.2 °F 88% 29.82 in 10.0 mi South 8.1 mph - N/A   Clear
8:55 AM 77.0 °F - 71.8 °F 84% 29.82 in 10.0 mi SSW 6.9 mph - N/A   Clear
9:15 AM 78.6 °F - 72.5 °F 81% 29.82 in 10.0 mi SSW 8.1 mph - N/A   Clear
9:35 AM 80.4 °F 84.7 °F 72.7 °F 77% 29.82 in 10.0 mi SSW 10.4 mph 17.3 mph N/A   Clear
9:55 AM 81.5 °F 86.7 °F 73.2 °F 76% 29.82 in 10.0 mi SSW 9.2 mph - N/A   Clear
10:15 AM 82.6 °F 88.6 °F 73.6 °F 74% 29.82 in 10.0 mi SSW 11.5 mph - N/A   Clear
10:35 AM 83.3 °F 89.6 °F 73.6 °F 72% 29.82 in 10.0 mi SSW 12.7 mph - N/A   Clear
10:55 AM 83.8 °F 90.4 °F 73.6 °F 71% 29.82 in 10.0 mi SSW 12.7 mph 17.3 mph N/A   Clear
11:15 AM 84.6 °F 91.4 °F 73.4 °F 69% 29.83 in 10.0 mi SSW 15.0 mph 19.6 mph N/A   Clear
11:35 AM 85.3 °F 93.0 °F 73.9 °F 69% 29.82 in 10.0 mi SW 11.5 mph 16.1 mph N/A   Clear
11:55 AM 86.4 °F 94.2 °F 73.8 °F 66% 29.83 in 10.0 mi SW 11.5 mph - N/A   Scattered Clouds
12:15 PM 86.2 °F 93.8 °F 73.6 °F 66% 29.84 in 10.0 mi SW 13.8 mph - N/A   Mostly Cloudy
12:35 PM 87.8 °F 96.1 °F 73.9 °F 63% 29.83 in 10.0 mi SW 12.7 mph 18.4 mph N/A   Mostly Cloudy
12:55 PM 88.3 °F 96.9 °F 73.9 °F 62% 29.83 in 10.0 mi SW 11.5 mph 19.6 mph N/A   Scattered Clouds
1:15 PM 89.1 °F 98.0 °F 74.1 °F 61% 29.82 in 10.0 mi SSW 12.7 mph - N/A   Scattered Clouds
1:35 PM 89.6 °F 99.3 °F 74.5 °F 61% 29.81 in 10.0 mi SSW 10.4 mph - N/A   Clear
1:55 PM 89.6 °F 98.2 °F 73.4 °F 59% 29.81 in 10.0 mi WSW 10.4 mph - N/A   Clear
2:15 PM 88.5 °F 96.3 °F 72.9 °F 60% 29.80 in 10.0 mi SW 11.5 mph - N/A   Clear
2:35 PM 90.5 °F 99.2 °F 73.4 °F 57% 29.79 in 10.0 mi SW 10.4 mph - N/A   Clear
2:55 PM 89.6 °F 98.2 °F 73.8 °F 59% 29.79 in 10.0 mi SW 9.2 mph - N/A   Clear
3:15 PM 89.2 °F 96.9 °F 72.9 °F 58% 29.78 in 10.0 mi SSW 10.4 mph - N/A   Clear
3:35 PM 88.5 °F 95.8 °F 72.5 °F 59% 29.78 in 10.0 mi SW 12.7 mph - N/A   Clear
3:55 PM 90.1 °F 98.9 °F 73.6 °F 58% 29.79 in 10.0 mi SW 10.4 mph - N/A   Clear
4:15 PM 89.6 °F 98.2 °F 73.6 °F 59% 29.78 in 10.0 mi SSW 9.2 mph - N/A   Clear
4:35 PM 87.6 °F 95.7 °F 73.6 °F 63% 29.77 in 10.0 mi SW 8.1 mph - N/A Thunderstorm Scattered Clouds
4:55 PM 83.5 °F 85.5 °F 65.8 °F 55% 29.80 in 10.0 mi North 9.2 mph - N/A   Overcast
5:15 PM 77.7 °F - 69.3 °F 75% 29.81 in 3.0 mi North 4.6 mph - 0.08 in Rain Heavy Rain
5:35 PM 77.4 °F - 69.4 °F 76% 29.83 in 10.0 mi WNW 11.5 mph 17.3 mph 0.08 in Rain , Thunderstorm Light Thunderstorms and Rain
5:55 PM 75.9 °F - 69.6 °F 81% 29.83 in 10.0 mi NNE 6.9 mph - 0.10 in Rain , Thunderstorm Light Thunderstorms and Rain
6:15 PM 74.7 °F - 68.9 °F 82% 29.84 in 10.0 mi NNE 13.8 mph - 0.01 in Rain , Thunderstorm Thunderstorms and Rain
6:35 PM 73.2 °F - 69.6 °F 88% 29.80 in 7.0 mi ENE 17.3 mph 21.9 mph 0.05 in Rain Rain
6:55 PM 73.4 °F - 70.0 °F 89% 29.78 in 10.0 mi NE 13.8 mph 17.3 mph 0.05 in   Scattered Clouds
7:15 PM 72.9 °F - 69.8 °F 90% 29.83 in 10.0 mi SW 9.2 mph - N/A   Scattered Clouds
7:35 PM 73.0 °F - 70.2 °F 91% 29.82 in 10.0 mi SSW 9.2 mph - N/A   Scattered Clouds
7:55 PM 73.4 °F - 70.7 °F 91% 29.81 in 10.0 mi SSW 4.6 mph - N/A   Clear
8:15 PM 73.4 °F - 70.7 °F 91% 29.81 in 10.0 mi SSW 6.9 mph - N/A   Clear
8:35 PM 72.9 °F - 70.3 °F 92% 29.82 in 10.0 mi WSW 3.5 mph - N/A   Clear
8:55 PM 72.5 °F - 70.2 °F 92% 29.83 in 7.0 mi WNW 4.6 mph - N/A   Scattered Clouds
9:15 PM 72.1 °F - 70.2 °F 93% 29.84 in 7.0 mi West 4.6 mph - N/A   Clear
9:35 PM 71.6 °F - 69.8 °F 94% 29.84 in 7.0 mi WSW 4.6 mph - N/A   Clear
9:55 PM 71.6 °F - 69.8 °F 94% 29.84 in 7.0 mi West 4.6 mph - N/A   Clear
10:15 PM 71.6 °F - 69.8 °F 94% 29.84 in 7.0 mi Calm Calm - N/A   Scattered Clouds
10:35 PM 71.8 °F - 69.8 °F 93% 29.84 in 7.0 mi Calm Calm - N/A   Scattered Clouds
10:55 PM 71.6 °F - 69.8 °F 94% 29.84 in 7.0 mi Calm Calm - N/A   Scattered Clouds
11:15 PM 71.4 °F - 69.8 °F 95% 29.84 in 5.0 mi South 4.6 mph - N/A   Mostly Cloudy
11:35 PM 71.2 °F - 69.8 °F 95% 29.84 in 5.0 mi Calm Calm - N/A   Scattered Clouds
11:55 PM 71.1 °F - 69.4 °F 95% 29.84 in 5.0 mi Calm Calm - N/A   Scattered Clouds